This is the latest recevied weather packets stored in our database for station/object WE1C. If no packets are shown the sender has not sent any weather packets the latest 10 day(s).
| Time | Temp. | Humidity | Pressure | Rain* | Wind** | Luminosity | Snow |
|---|---|---|---|---|---|---|---|
| 1778017880 | 23.89° C | 44% | 1036 hPa | 0 mm | - | 113 W/m² | - |
| 1778017577 | 24.44° C | 43% | 1036.1 hPa | 0 mm | - | 110 W/m² | - |
| 1778017273 | 24.44° C | 42% | 1035.9 hPa | 0 mm | - | 115 W/m² | - |
| 1778016971 | 24.44° C | 41% | 1035.9 hPa | 0 mm | - | 137 W/m² | - |
| 1778016667 | 25° C | 41% | 1036.1 hPa | 0 mm | - | 146 W/m² | - |
| 1778016364 | 25° C | 41% | 1035.8 hPa | 0 mm | - | 155 W/m² | - |
| 1778016062 | 25° C | 41% | 1035.8 hPa | 0 mm | - | 121 W/m² | - |
| 1778015759 | 25° C | 40% | 1035.8 hPa | 0 mm | - | 127 W/m² | - |
| 1778015456 | 25° C | 40% | 1035.6 hPa | 0 mm | - | 131 W/m² | - |
| 1778015152 | 25° C | 39% | 1035.5 hPa | 0 mm | - | 117 W/m² | - |
| 1778014849 | 25.56° C | 39% | 1035.6 hPa | 0 mm | - | 121 W/m² | - |
| 1778014547 | 26.11° C | 38% | 1035.7 hPa | 0 mm | - | 137 W/m² | - |
| 1778014244 | 26.11° C | 36% | 1035.4 hPa | 0 mm | - | 123 W/m² | - |
| 1778013942 | 26.67° C | 35% | 1035.3 hPa | 0 mm | - | 247 W/m² | - |
| 1778013639 | 26.11° C | 35% | 1035.4 hPa | 0 mm | - | 228 W/m² | - |
| 1778013335 | 26.67° C | 35% | 1035.6 hPa | 0 mm | - | 178 W/m² | - |
| 1778013033 | 26.67° C | 36% | 1035.7 hPa | 0 mm | - | 226 W/m² | - |
| 1778012728 | 26.67° C | 35% | 1035.2 hPa | 0 mm | - | 289 W/m² | - |
| 1778012424 | 26.67° C | 34% | 1035.6 hPa | 0 mm | - | 267 W/m² | - |
| 1778012122 | 26.67° C | 33% | 1035.6 hPa | 0 mm | - | 263 W/m² | - |
| 1778011819 | 26.67° C | 34% | 1035.4 hPa | 0 mm | - | 542 W/m² | - |
| 1778011517 | 26.67° C | 33% | 1035.8 hPa | 0 mm | - | 558 W/m² | - |
| 1778011214 | 27.22° C | 33% | 1035.6 hPa | 0 mm | - | 563 W/m² | - |
| 1778010909 | 26.67° C | 34% | 1035.7 hPa | 0 mm | - | 491 W/m² | - |
| 1778010607 | 27.22° C | 33% | 1035.6 hPa | 0 mm | - | 169 W/m² | - |
* Rain latest hour (hover to see other rain measurements)
** Current wind speed in m/s (hover to see current wind gust speed)